AirNav  
 
 1151 users online  

FA40 Hidden Lake Airport
New Port Richey, Florida, USA

GOING TO NEW PORT RICHEY?


FAA INFORMATION EFFECTIVE 29 MARCH 2018

Location

FAA Identifier: FA40
Lat/Long: 28-16-59.1000N / 082-38-26.5200W
28-16.985000N / 082-38.442000W
28.2830833 / -82.6407000
(estimated)
Elevation: 30 ft. / 9 m (estimated)
Variation: 02W (1985)
From city: 4 miles NE of NEW PORT RICHEY, FL
Time zone: UTC -4 (UTC -5 during Standard Time)
Zip code: 34654

Airport Operations

Airport use: Private use. Permission required prior to landing
Activation date: 08/1971
Control tower: no
ARTCC: MIAMI CENTER
FSS: SAINT PETERSBURG FLIGHT SERVICE STATION
Attendance: UNATNDD
Wind indicator: yes
Segmented circle: yes
Lights: ACTVT LIRL RY 05/23 - 123.0.
Beacon: white-green (lighted land airport)
Operates sunset to sunrise.
Landing fee: yes

Airport Communications

UNICOM: 123.0
WX ASOS at BKV (15 nm NE): 134.725 (352-799-5881)
WX ASOS at TPA (19 nm S): PHONE 813-873-7228
WX AWOS-3P at CLW (19 nm S): 119.225 (727-449-2184)

Nearby radio navigation aids

VOR radial/distance  VOR name  Freq  Var
PIEr011/22.6ST PETERSBURG VORTAC116.4005W
LALr297/37.6LAKELAND VORTAC116.0001E

 
NDB name  Hdg/Dist  Freq  Var  ID
COSME338/13.336805WTP - .--.

Airport Services

Fuel available: 100LL
SELF SVC FUEL AVBL 24 HRS.
Airframe service: NONE
Powerplant service: NONE
Bottled oxygen: NONE
Bulk oxygen: NONE

Runway Information

Runway 5/23

Dimensions: 4425 x 50 ft. / 1349 x 15 m
Surface: asphalt, in good condition
Runway edge lights: low intensity
RUNWAY 5  RUNWAY 23
Traffic pattern: leftleft
Displaced threshold: 375 ft.650 ft.
Markings: basicbasic
Visual slope indicator: 2-light PAPI on left2-light PAPI on left
Obstructions: 45 ft. pline, lighted, 950 ft. from runwaytrees, 2000 ft. from runway

Airport Ownership and Management from official FAA records

Ownership: Privately-owned
Owner: AIRPORT INVESTORS INC
8901 AIRWAY BLVD
NEW PORT RICHEY, FL 34654
Phone 727-534-1998
Manager: JOHN EDWARDS
8901 AIRWAY BLVD
NEW PORT RICHEY, FL 34654
Phone 727-534-1998

Airport Operational Statistics

Aircraft based on the field: 83
Single engine airplanes: 75
Multi engine airplanes: 5
Helicopters: 3
    

Additional Remarks

OPNS LIMITED TO HEL & FIXED WING ACFT WEIGHING 10,000 POUNDS OR LESS.
PPR FOR NON-BASED ACFT. CTC ARPT MGMT 24 HRS IN ADVN AT 727-534-1998.
ANIMALS INVOF RY.

Instrument Procedures

There are no published instrument procedures at FA40.

Some nearby airports with instrument procedures:

KBKV - Brooksville-Tampa Bay Regional Airport (15 nm NE)
KTPA - Tampa International Airport (19 nm S)
KCLW - Clearwater Air Park (19 nm S)
KVDF - Tampa Executive Airport (22 nm SE)
KPIE - St Pete-Clearwater International Airport (23 nm S)
 
Loc | Ops | Rwys | IFR | FBO | Links
Com | Nav | Svcs | Stats | Notes


 
Area around FA40 (Hidden Lake Airport)
 
Road maps at: MapQuest Bing Google
 
Aerial photo
WARNING: Photo may not be current or correct
Aerial photo of FA40 (Hidden Lake Airport)
Do you have a better or more recent aerial photo of Hidden Lake Airport that you would like to share? If so, please send us your photo.

 
Sectional chart

 
Airport distance calculator
Flying to Hidden Lake Airport? Find the distance to fly.

From to FA40

Sunrise and sunset
Times for 19-Apr-2018
 Local
(UTC-4)
 Zulu
(UTC)
Morning civil twilight06:3810:38
Sunrise07:0211:02
Sunset19:5723:57
Evening civil twilight20:2100:21

Current date and time
Zulu (UTC)  19-Apr-2018 23:37:00
Local (UTC-4)  19-Apr-2018 19:37:00
 
METAR
KBKV 
15nm NE 
192253Z 27008KT 10SM CLR 24/16 A3010 RMK AO2 SLP190 T02440161
KCLW 
19nm S 
192315Z AUTO 29005KT 10SM SCT019 22/17 A3009 RMK AO2
KTPA 
20nm S 
192253Z 30006KT 10SM FEW030 FEW300 25/17 A3009 RMK AO2 SLP190 T02500172
KPIE 
22nm S 
192253Z 32009KT 10SM SCT025 24/18 A3009 RMK AO2 SLP189 T02440178
KVDF 
22nm SE 
192315Z AUTO 34006KT 10SM SCT034 24/17 A3009 RMK AO2
KTPF 
24nm SE 
192315Z AUTO 30006KT 10SM SCT031 OVC110 24/17 A3009 RMK AO2
KZPH 
26nm E 
192315Z AUTO 31008G14KT 10SM CLR 24/17 A3009 RMK AO2 T02440168
KMCF 
27nm S 
192256Z AUTO 31004KT 10SM CLR 24/18 A3009 RMK AO2 SLP193 T02440183 FZRANO $
TAF
KTPA 
20nm S 
192055Z 1921/2024 29010KT P6SM SCT030 SCT250 FM200200 30005KT P6SM FEW025 SCT250 FM201200 04006KT P6SM FEW030 SCT250 FM201800 26008KT P6SM SCT035 SCT250 FM202300 03012KT P6SM SCT250
KPIE 
22nm S 
192107Z 1921/2018 31012KT P6SM BKN035 TEMPO 1921/1923 BKN020 FM200200 30005KT P6SM FEW025 SCT250 FM201200 04007KT P6SM FEW030 SCT250
NOTAMs
Click for the latest NOTAMs
NOTAMs are issued by the DoD/FAA and will open in a separate window not controlled by AirNav.

 

 
 

Would you like to see your business listed on this page?

 If your business provides an interesting product or service to pilots, flight crews, aircraft, or users of the Hidden Lake Airport, you should consider listing it here.  To start the listing process, click on the button below
 
Add a business
 

Other Pages about Hidden Lake Airport

www.hiddenlakeairport.com
 
Update a link
 
Copyright © AirNav, LLC. All rights reserved. Privacy Policy  Contact